This is the latest recevied weather packets stored in our database for station/object KA0EGE. If no packets are shown the sender has not sent any weather packets the latest 10 day(s).
| Time | Temp. | Humidity | Pressure | Rain* | Wind** | Luminosity | Snow |
|---|---|---|---|---|---|---|---|
| 1777639925 | 19.44° C | 91% | 1015.7 hPa | 0 mm | - | 93 W/m² | - |
| 1777639623 | 19.44° C | 92% | 1015.6 hPa | 0 mm | - | 101 W/m² | - |
| 1777639320 | 19.44° C | 92% | 1015.5 hPa | 0 mm | - | 91 W/m² | - |
| 1777639015 | 18.89° C | 92% | 1015.5 hPa | 0 mm | - | 76 W/m² | - |
| 1777638712 | 18.89° C | 93% | 1015.4 hPa | 0 mm | - | 59 W/m² | - |
| 1777638408 | 18.89° C | 93% | 1015.4 hPa | 0 mm | - | 67 W/m² | - |
| 1777638105 | 18.89° C | 94% | 1015.2 hPa | 0 mm | - | 81 W/m² | - |
| 1777637801 | 18.89° C | 94% | 1015.1 hPa | 0 mm | - | 91 W/m² | - |
| 1777637497 | 18.89° C | 93% | 1015 hPa | 0 mm | - | 77 W/m² | - |
| 1777637195 | 18.89° C | 93% | 1015 hPa | 0 mm | - | 57 W/m² | - |
| 1777636892 | 18.89° C | 93% | 1015.1 hPa | 0 mm | - | 50 W/m² | - |
| 1777636588 | 18.89° C | 92% | 1015.1 hPa | 0 mm | - | 38 W/m² | - |
| 1777636284 | 18.89° C | 92% | 1014.9 hPa | 0 mm | - | 20 W/m² | - |
| 1777635984 | 18.89° C | 92% | 1015.2 hPa | 0 mm | - | 18 W/m² | - |
| 1777635680 | 18.89° C | 92% | 1015.2 hPa | 0 mm | - | 13 W/m² | - |
| 1777635377 | 18.89° C | 91% | 1015.2 hPa | 0 mm | - | 9 W/m² | - |
| 1777635074 | 18.89° C | 91% | 1015.1 hPa | 0 mm | - | 7 W/m² | - |
| 1777634769 | 18.89° C | 91% | 1014.8 hPa | 0 mm | - | 7 W/m² | - |
| 1777634467 | 18.89° C | 91% | 1015 hPa | 0 mm | - | 6 W/m² | - |
| 1777634164 | 18.89° C | 91% | 1015.1 hPa | 0 mm | - | 4 W/m² | - |
| 1777633860 | 18.89° C | 91% | 1014.9 hPa | 0 mm | - | 3 W/m² | - |
| 1777633558 | 18.89° C | 91% | 1014.6 hPa | 0 mm | - | 2 W/m² | - |
| 1777633255 | 18.89° C | 91% | 1014.2 hPa | 0 mm | - | 2 W/m² | - |
| 1777632953 | 18.89° C | 91% | 1014.4 hPa | 0 mm | - | 0 W/m² | - |
| 1777632649 | 18.89° C | 91% | 1014.2 hPa | 0 mm | - | 0 W/m² | - |
* Rain latest hour (hover to see other rain measurements)
** Current wind speed in m/s (hover to see current wind gust speed)